FW4751 Weather Reports


time (UTC)temp
F
wind
direction
speed
knots
gust
knots
rain 1hr
in
rain 24hr
in
rain mn
in
humidity
%
barometer
mb
20260503193003 64 225 0.9 3.5 0.00 0.00 0.00 60 1013.5
20260503192504 65 225 1.7 7.0 0.00 0.00 0.00 59 1013.6
20260503192003 65 225 1.7 7.8 0.00 0.00 0.00 58 1013.6
20260503191503 65 293 1.7 3.5 0.00 0.00 0.00 58 1013.5
20260503191003 66 225 1.7 4.3 0.00 0.00 0.00 57 1013.5
20260503190504 65 0 0.9 2.6 0.00 0.00 0.00 56 1013.6
20260503190003 65 113 0.9 4.3 0.00 0.00 0.00 57 1013.6
20260503185503 64 293 0.9 3.5 0.00 0.00 0.00 59 1013.5
20260503185004 64 248 1.7 4.3 0.00 0.00 0.00 61 1013.6
20260503184503 64 315 1.7 4.3 0.00 0.00 0.00 61 1013.6
20260503184003 64 248 1.7 4.3 0.00 0.00 0.00 62 1013.6
20260503183503 64 225 1.7 6.1 0.00 0.00 0.00 60 1013.7
20260503183003 64 225 1.7 3.5 0.00 0.00 0.00 60 1013.7
20260503182503 64 315 1.7 3.5 0.00 0.00 0.00 61 1013.7
20260503182003 64 225 1.7 5.2 0.00 0.00 0.00 61 1013.7
20260503181504 64 225 1.7 7.8 0.00 0.00 0.00 60 1013.7
20260503181004 64 225 1.7 6.1 0.00 0.00 0.00 60 1013.7
20260503180503 63 225 1.7 5.2 0.00 0.00 0.00 63 1013.6
20260503180003 63 270 1.7 4.3 0.00 0.00 0.00 63 1013.6
20260503175503 63 225 2.6 6.1 0.00 0.00 0.00 63 1013.7
20260503175005 62 225 2.6 6.1 0.00 0.00 0.00 64 1013.6
20260503174505 62 225 1.7 5.2 0.00 0.00 0.00 66 1013.6
20260503174005 61 225 2.6 6.1 0.00 0.00 0.00 66 1013.7
20260503173505 61 225 1.7 6.1 0.00 0.00 0.00 67 1013.7
20260503173005 60 225 2.6 5.2 0.00 0.00 0.00 70 1013.7
20260503172505 60 225 1.7 3.5 0.00 0.00 0.00 70 1013.7
20260503172005 60 225 1.7 5.2 0.00 0.00 0.00 70 1013.7
20260503171525 59 225 1.7 6.1 0.00 0.00 0.00 72 1013.7
20260503171024 59 315 1.7 4.3 0.00 0.00 0.00 73 1013.7
20260503170505 59 315 1.7 5.2 0.00 0.00 0.00 74 1013.7
20260503151004 57 225 0.9 2.6 0.00 0.00 0.00 79 1013.4
20260503150505 56 225 0.9 4.3 0.00 0.00 0.00 79 1013.2
20260503131004 55 293 0.9 1.7 0.00 0.00 0.00 81 1011.9
20260503130504 55 225 0.9 1.7 0.00 0.00 0.00 80 1011.9
20260503110504 55 0.0 0.9 0.00 0.00 0.00 79 1011.8
20260503081504 56 270 0.9 2.6 0.00 0.00 0.00 77 1012.5
20260503081023 56 248 0.9 1.7 0.00 0.00 0.00 77 1012.6
20260503080523 56 270 0.9 2.6 0.00 0.00 0.00 77 1012.6
20260503072504 56 270 0.9 2.6 0.00 0.00 0.00 76 1012.9
20260503072004 56 338 1.7 3.5 0.00 0.00 0.00 76 1012.8
20260503071503 56 315 0.9 1.7 0.00 0.00 0.00 76 1012.8
20260503071003 56 338 0.9 3.5 0.00 0.00 0.00 76 1012.6
20260503070503 56 338 0.9 2.6 0.00 0.00 0.00 76 1012.7
20260503055004 56 338 1.7 4.3 0.00 0.00 0.00 76 1013.1
20260503054503 56 338 0.9 2.6 0.00 0.00 0.00 77 1013.0
20260503054003 56 315 0.9 3.5 0.00 0.00 0.00 77 1013.2
20260503053503 56 338 0.9 2.6 0.00 0.00 0.00 77 1013.0
20260503053023 56 293 0.9 3.5 0.00 0.00 0.00 77 1013.1
20260503052503 56 315 0.9 2.6 0.00 0.00 0.00 77 1013.1
20260503052003 56 338 0.9 3.5 0.00 0.00 0.00 77 1013.1
20260503051503 56 338 1.7 5.2 0.00 0.00 0.00 77 1013.2
20260503051023 56 338 0.9 4.3 0.00 0.00 0.00 77 1013.1
20260503050503 56 338 1.7 3.5 0.00 0.00 0.00 77 1013.1
20260503050003 56 338 0.9 2.6 0.00 0.00 0.00 77 1013.2
20260503045503 56 338 1.7 4.3 0.00 0.00 0.00 76 1013.0
20260503045003 56 315 1.7 4.3 0.00 0.00 0.00 76 1013.0
20260503044503 56 315 0.9 3.5 0.00 0.00 0.00 76 1012.9
20260503044003 56 338 1.7 5.2 0.00 0.00 0.00 75 1013.0
20260503043523 56 338 1.7 7.0 0.00 0.00 0.00 75 1012.9
20260503043023 56 315 1.7 4.3 0.00 0.00 0.00 75 1012.8
20260503042503 57 338 1.7 4.3 0.00 0.00 0.00 75 1012.9
20260503042003 57 315 1.7 5.2 0.00 0.00 0.00 75 1012.8
20260503041503 57 315 0.9 5.2 0.00 0.00 0.00 75 1012.7
20260503041023 57 315 0.9 3.5 0.00 0.00 0.00 75 1012.7
20260503040502 57 338 1.7 5.2 0.00 0.00 0.00 75 1012.6
20260503040004 57 338 1.7 7.0 0.00 0.00 0.00 75 1012.6
20260503035503 57 293 1.7 4.3 0.00 0.00 0.00 75 1012.5
20260503035003 57 338 1.7 5.2 0.00 0.00 0.00 75 1012.5
20260503034503 57 338 1.7 5.2 0.00 0.00 0.00 75 1012.6
20260503034002 57 338 1.7 6.1 0.00 0.00 0.00 75 1012.5
20260503033502 57 338 1.7 6.1 0.00 0.00 0.00 75 1012.4
20260503033003 57 338 1.7 4.3 0.00 0.00 0.00 74 1012.3
20260503032505 57 338 1.7 5.2 0.00 0.00 0.00 74 1012.4
20260503032004 57 338 1.7 5.2 0.00 0.00 0.00 74 1012.3
20260503031505 58 338 1.7 4.3 0.00 0.00 0.00 74 1012.1
20260503031005 58 338 1.7 7.0 0.00 0.00 0.00 73 1012.2
20260503030505 58 0 2.6 5.2 0.00 0.00 0.00 73 1012.0
20260503030004 58 315 0.9 3.5 0.00 0.00 0.00 72 1011.8
20260503025505 58 338 1.7 5.2 0.00 0.00 0.00 72 1011.7
20260503025004 58 45 2.6 6.1 0.00 0.00 0.00 71 1011.6
20260503024506 58 338 1.7 6.1 0.00 0.00 0.00 71 1011.6
20260503024005 59 338 1.7 6.1 0.00 0.00 0.00 70 1011.5
20260503023505 59 338 1.7 4.3 0.00 0.00 0.00 70 1011.3
20260503023005 59 338 1.7 6.1 0.00 0.00 0.00 70 1011.4
20260503022505 59 338 2.6 6.1 0.00 0.00 0.00 70 1011.4
20260503022006 59 338 1.7 5.2 0.00 0.00 0.00 70 1011.4
20260503021505 59 338 2.6 6.1 0.00 0.00 0.00 70 1011.3
20260503021005 60 338 1.7 5.2 0.00 0.00 0.00 70 1011.3
20260503020504 60 338 1.7 7.0 0.00 0.00 0.00 70 1011.4
20260503020005 60 338 1.7 4.3 0.00 0.00 0.00 69 1011.4
20260503015505 60 338 1.7 6.1 0.00 0.00 0.00 69 1011.4
20260503015005 60 338 1.7 3.5 0.00 0.00 0.00 69 1011.3
20260503014505 61 338 1.7 6.1 0.00 0.00 0.00 69 1011.4
20260503014024 61 338 2.6 7.8 0.00 0.00 0.00 69 1011.4
20260503013504 61 338 2.6 7.0 0.00 0.00 0.00 68 1011.4
20260503013004 61 338 1.7 3.5 0.00 0.00 0.00 69 1011.4
20260503012605 62 338 1.7 6.1 0.00 0.00 0.00 68 1011.4
20260503012004 62 338 1.7 6.1 0.00 0.00 0.00 68 1011.4
20260503011504 62 338 2.6 6.1 0.00 0.00 0.00 68 1011.3
20260503011004 63 338 2.6 6.1 0.00 0.00 0.00 67 1011.4
20260503010504 63 315 1.7 5.2 0.00 0.00 0.00 66 1011.3
20260503010005 63 338 1.7 5.2 0.00 0.00 0.00 66 1011.3
20260503005504 64 338 2.6 5.2 0.00 0.00 0.00 66 1011.3
20260503005004 64 338 1.7 5.2 0.00 0.00 0.00 66 1011.3
20260503004524 64 45 2.6 7.0 0.00 0.00 0.00 66 1011.5
20260503004004 64 338 2.6 7.0 0.00 0.00 0.00 66 1011.2
20260503003504 64 338 2.6 7.8 0.00 0.00 0.00 66 1011.3
20260503003044 64 0 2.6 7.0 0.00 0.00 0.00 66 1011.4
20260503002524 64 45 2.6 6.1 0.00 0.00 0.00 65 1011.3
20260503002004 64 23 2.6 7.8 0.00 0.00 0.00 66 1011.5
20260503001504 64 338 3.5 7.8 0.00 0.00 0.00 65 1011.3
20260503001024 65 0 2.6 7.8 0.00 0.00 0.00 66 1011.5
20260503000504 65 45 2.6 6.1 0.00 0.00 0.00 65 1011.4
20260503000004 64 338 3.5 7.8 0.00 0.00 0.00 65 1011.5
20260502235504 65 0 4.3 11.3 0.00 0.00 0.00 65 1011.5
20260502235004 65 338 3.5 7.8 0.00 0.00 0.00 64 1011.5
20260502234504 65 45 2.6 7.8 0.00 0.00 0.00 64 1011.4
20260502234005 65 338 1.7 5.2 0.00 0.00 0.00 65 1011.6
20260502233504 65 45 2.6 6.1 0.00 0.00 0.00 65 1011.5
20260502233004 65 0 2.6 6.1 0.00 0.00 0.00 66 1011.7
20260502232505 64 0 3.5 7.8 0.00 0.00 0.00 66 1011.7
20260502232005 64 45 3.5 7.0 0.00 0.00 0.00 66 1011.7
20260502231504 65 338 3.5 8.7 0.00 0.00 0.00 66 1011.8
20260502231005 65 338 2.6 7.8 0.00 0.00 0.00 66 1011.8
20260502230504 65 45 2.6 7.0 0.00 0.00 0.00 66 1012.0
20260502230004 65 338 3.5 7.8 0.00 0.00 0.00 66 1012.2
20260502225504 64 45 2.6 7.8 0.00 0.00 0.00 67 1012.2
20260502225004 64 45 4.3 7.8 0.00 0.00 0.00 66 1012.2
20260502224504 64 45 3.5 7.8 0.00 0.00 0.00 67 1012.3
20260502224004 64 45 2.6 5.2 0.00 0.00 0.00 67 1012.3
20260502223504 64 0 2.6 7.8 0.00 0.00 0.00 67 1012.4
20260502223024 64 45 2.6 6.1 0.00 0.00 0.00 67 1012.6
20260502222504 64 45 3.5 7.8 0.00 0.00 0.00 67 1012.8
20260502222004 64 45 3.5 7.8 0.00 0.00 0.00 66 1012.9
20260502221504 64 45 2.6 7.8 0.00 0.00 0.00 66 1012.9
20260502221004 64 45 3.5 7.0 0.00 0.00 0.00 66 1013.1
20260502220504 65 45 2.6 7.8 0.00 0.00 0.00 66 1013.0
20260502220004 65 45 3.5 8.7 0.00 0.00 0.00 65 1013.1
20260502215504 66 45 2.6 6.1 0.00 0.00 0.00 63 1013.1
20260502215004 67 45 3.5 7.0 0.00 0.00 0.00 62 1013.3
20260502214504 68 45 3.5 8.7 0.00 0.00 0.00 62 1013.2
20260502214024 69 45 2.6 5.2 0.00 0.00 0.00 60 1013.3
20260502213504 70 338 1.7 5.2 0.00 0.00 0.00 59 1013.3
20260502213004 70 338 1.7 3.5 0.00 0.00 0.00 58 1013.3
20260502212504 70 225 0.9 2.6 0.00 0.00 0.00 59 1013.3
20260502212004 70 315 1.7 3.5 0.00 0.00 0.00 59 1013.4
20260502211504 70 315 1.7 5.2 0.00 0.00 0.00 60 1013.4
20260502211024 69 225 1.7 3.5 0.00 0.00 0.00 61 1013.4
20260502210504 69 45 1.7 5.2 0.00 0.00 0.00 60 1013.4
20260502210004 69 338 1.7 5.2 0.00 0.00 0.00 60 1013.5
20260502205504 70 225 1.7 3.5 0.00 0.00 0.00 60 1013.6
20260502205003 69 338 1.7 5.2 0.00 0.00 0.00 61 1013.9
20260502204504 69 315 1.7 4.3 0.00 0.00 0.00 61 1013.8
20260502204004 69 338 2.6 5.2 0.00 0.00 0.00 61 1013.8
20260502203504 69 338 1.7 5.2 0.00 0.00 0.00 62 1014.0
20260502203004 68 248 1.7 5.2 0.00 0.00 0.00 63 1014.0
20260502202503 68 225 2.6 7.0 0.00 0.00 0.00 62 1014.0
20260502202004 68 225 2.6 5.2 0.00 0.00 0.00 63 1014.0
20260502201503 68 338 1.7 5.2 0.00 0.00 0.00 63 1014.1
20260502201004 68 225 3.5 7.0 0.00 0.00 0.00 63 1014.2
20260502200504 68 315 1.7 5.2 0.00 0.00 0.00 63 1014.3
20260502200004 67 315 3.5 7.0 0.00 0.00 0.00 63 1014.5
20260502195504 67 315 3.5 7.0 0.00 0.00 0.00 64 1014.6
20260502195004 67 315 2.6 7.8 0.00 0.00 0.00 63 1014.5
20260502194504 67 293 1.7 4.3 0.00 0.00 0.00 66 1014.5
20260502194024 66 225 2.6 6.1 0.00 0.00 0.00 66 1014.6
20260502193503 66 248 2.6 7.8 0.00 0.00 0.00 66 1014.5